Radiation Dose at Monitoring Post of Fukushima Daini Nuclear Power Station
Date,Time,MP-1(microSv/h),MP-2(microSv/h),MP-3(microSv/h),MP-4(microSv/h),MP-5(microSv/h),MP-6(microSv/h),MP-7(microSv/h),Wind Direction,Wind Velocity(m/s),Rain
2018/02/20,00:00,0.338,0.209,0.345,0.326,0.307,0.171,0.102,south,1.1,No
2018/02/20,00:10,0.337,0.209,0.345,0.326,0.306,0.172,0.102,south-southeast,0.7,No
2018/02/20,00:20,0.339,0.210,0.344,0.328,0.305,0.172,0.103,southeast,0.9,No
2018/02/20,00:30,0.339,0.209,0.345,0.327,0.307,0.171,0.102,south-southeast,0.9,No
2018/02/20,00:40,0.337,0.210,0.345,0.327,0.306,0.171,0.103,south,1.6,No
2018/02/20,00:50,0.339,0.209,0.345,0.327,0.307,0.171,0.103,south-southwest,1.7,No
2018/02/20,01:00,0.338,0.209,0.346,0.327,0.307,0.171,0.103,southwest,3.1,No
2018/02/20,01:10,0.338,0.211,0.346,0.325,0.307,0.171,0.102,southwest,3.4,No
2018/02/20,01:20,0.337,0.210,0.345,0.328,0.308,0.171,0.103,southwest,3.5,No
2018/02/20,01:30,0.339,0.209,0.346,0.326,0.307,0.172,0.102,southwest,4.7,No
2018/02/20,01:40,0.338,0.209,0.345,0.326,0.308,0.171,0.103,south-southwest,2.9,No
2018/02/20,01:50,0.337,0.210,0.344,0.328,0.307,0.172,0.103,south,1.3,No
2018/02/20,02:00,0.337,0.211,0.345,0.326,0.307,0.171,0.103,south-southwest,1.9,No
2018/02/20,02:10,0.337,0.209,0.344,0.327,0.307,0.171,0.103,south-southwest,1.9,No
2018/02/20,02:20,0.338,0.209,0.344,0.327,0.307,0.172,0.103,south-southwest,1.9,No
2018/02/20,02:30,0.338,0.210,0.345,0.327,0.308,0.171,0.104,south-southwest,1.9,No
2018/02/20,02:40,0.338,0.209,0.345,0.326,0.309,0.171,0.103,south-southwest,2.3,No
2018/02/20,02:50,0.337,0.210,0.345,0.327,0.308,0.172,0.103,south-southwest,4.1,No
2018/02/20,03:00,0.338,0.209,0.345,0.328,0.306,0.171,0.103,south-southwest,2.6,No
2018/02/20,03:10,0.338,0.209,0.346,0.328,0.309,0.172,0.103,south,3.3,No
2018/02/20,03:20,0.338,0.209,0.345,0.327,0.307,0.172,0.103,south,3.4,No
2018/02/20,03:30,0.336,0.210,0.345,0.326,0.307,0.173,0.103,south,1.9,No
2018/02/20,03:40,0.337,0.211,0.345,0.328,0.307,0.172,0.103,south-southeast,0.8,No
2018/02/20,03:50,0.338,0.210,0.344,0.327,0.309,0.172,0.103,southwest,1.6,No
2018/02/20,04:00,0.337,0.209,0.345,0.327,0.308,0.172,0.105,south-southwest,4.1,No
2018/02/20,04:10,0.339,0.210,0.345,0.326,0.306,0.170,0.103,south-southwest,5.2,No
2018/02/20,04:20,0.338,0.210,0.345,0.327,0.307,0.172,0.104,south-southwest,5.0,No
2018/02/20,04:30,0.338,0.209,0.344,0.327,0.307,0.171,0.103,south-southwest,6.8,No
2018/02/20,04:40,0.339,0.210,0.344,0.328,0.307,0.172,0.103,south-southwest,6.8,No
2018/02/20,04:50,0.338,0.209,0.345,0.327,0.307,0.172,0.103,south-southwest,7.5,No
2018/02/20,05:00,0.339,0.210,0.345,0.327,0.307,0.172,0.103,south-southwest,7.1,No
2018/02/20,05:10,0.337,0.210,0.344,0.327,0.307,0.171,0.104,south-southwest,6.4,No
2018/02/20,05:20,0.337,0.209,0.344,0.326,0.307,0.172,0.102,south-southwest,6.3,No
2018/02/20,05:30,0.337,0.211,0.346,0.327,0.307,0.172,0.103,south-southwest,5.3,No
2018/02/20,05:40,0.339,0.209,0.346,0.327,0.308,0.171,0.102,south-southwest,3.7,No
2018/02/20,05:50,0.339,0.209,0.346,0.328,0.309,0.172,0.103,south-southwest,3.7,No
2018/02/20,06:00,0.338,0.210,0.345,0.326,0.306,0.171,0.103,south-southwest,2.3,No
2018/02/20,06:10,0.338,0.209,0.346,0.327,0.306,0.171,0.103,south-southwest,2.3,No
2018/02/20,06:20,0.337,0.209,0.346,0.326,0.307,0.172,0.103,southwest,2.7,No
2018/02/20,06:30,0.339,0.211,0.346,0.327,0.308,0.172,0.103,west-southwest,2.5,No
2018/02/20,06:40,0.338,0.210,0.346,0.328,0.308,0.172,0.103,west,2.1,No
2018/02/20,06:50,0.338,0.211,0.346,0.329,0.306,0.172,0.103,north-northwest,2.5,No
2018/02/20,07:00,0.338,0.209,0.346,0.326,0.307,0.172,0.102,north,1.7,No
2018/02/20,07:10,0.338,0.208,0.345,0.327,0.306,0.172,0.103,north,2.1,No
2018/02/20,07:20,0.337,0.209,0.345,0.326,0.307,0.172,0.103,north,2.3,No
2018/02/20,07:30,0.338,0.210,0.345,0.326,0.307,0.171,0.104,north,1.7,No
2018/02/20,07:40,0.337,0.210,0.346,0.326,0.306,0.171,0.103,north,1.5,No
2018/02/20,07:50,0.338,0.209,0.345,0.327,0.308,0.171,0.103,north,1.3,No
2018/02/20,08:00,0.339,0.210,0.344,0.325,0.308,0.172,0.104,north-northwest,2.7,No
2018/02/20,08:10,0.337,0.210,0.345,0.326,0.307,0.172,0.103,north-northwest,2.9,No
2018/02/20,08:20,0.339,0.209,0.345,0.327,0.309,0.172,0.103,north-northwest,2.2,No
2018/02/20,08:30,0.339,0.208,0.346,0.324,0.306,0.172,0.103,north,2.0,No
2018/02/20,08:40,0.339,0.210,0.344,0.327,0.308,0.171,0.102,north-northwest,2.2,No
2018/02/20,08:50,0.337,0.208,0.344,0.326,0.308,0.172,0.103,north,3.6,No
2018/02/20,09:00,0.337,0.209,0.345,0.325,0.306,0.171,0.102,north,4.1,No
2018/02/20,09:10,0.336,0.208,0.344,0.326,0.306,0.170,0.103,north,4.5,No
2018/02/20,09:20,0.338,0.207,0.345,0.325,0.307,0.171,0.103,north,5.2,No
2018/02/20,09:30,0.337,0.209,0.344,0.323,0.307,0.172,0.102,north,4.5,No
2018/02/20,09:40,0.336,0.208,0.344,0.325,0.307,0.172,0.101,north,4.6,No
2018/02/20,09:50,0.338,0.209,0.345,0.325,0.307,0.172,0.102,north,3.4,No
2018/02/20,10:00,0.335,0.209,0.345,0.326,0.308,0.171,0.103,north,3.8,No
2018/02/20,10:10,0.337,0.208,0.344,0.325,0.307,0.171,0.103,north,2.5,No
2018/02/20,10:20,0.335,0.208,0.343,0.325,0.305,0.171,0.102,north,3.3,No
2018/02/20,10:30,0.334,0.209,0.346,0.323,0.308,0.171,0.102,north,4.4,No
2018/02/20,10:40,0.337,0.209,0.344,0.324,0.306,0.171,0.102,north-northeast,2.6,No
2018/02/20,10:50,0.337,0.208,0.346,0.324,0.309,0.171,0.103,north-northeast,3.7,No
2018/02/20,11:00,0.335,0.210,0.345,0.325,0.308,0.172,0.102,north-northeast,2.3,No
2018/02/20,11:10,0.337,0.209,0.346,0.326,0.306,0.169,0.103,north-northwest,2.8,No
2018/02/20,11:20,0.336,0.209,0.346,0.327,0.308,0.169,0.103,north-northwest,4.0,No
2018/02/20,11:30,0.338,0.208,0.344,0.324,0.306,0.170,0.102,northwest,5.1,No
2018/02/20,11:40,0.336,0.209,0.344,0.326,0.307,0.170,0.102,north,1.4,No
2018/02/20,11:50,0.336,0.211,0.343,0.325,0.306,0.171,0.103,north-northeast,1.5,No
2018/02/20,12:00,0.336,0.208,0.343,0.324,0.308,0.171,0.102,east-northeast,2.2,No
2018/02/20,12:10,0.336,0.209,0.343,0.324,0.307,0.172,0.102,northeast,3.4,No
2018/02/20,12:20,0.337,0.209,0.342,0.325,0.309,0.172,0.103,west-northwest,4.0,No
2018/02/20,12:30,0.336,0.209,0.345,0.325,0.308,0.172,0.102,west-northwest,3.8,No
2018/02/20,12:40,0.337,0.210,0.342,0.326,0.307,0.172,0.102,west-northwest,7.0,No
2018/02/20,12:50,0.335,0.209,0.345,0.325,0.307,0.171,0.103,west-northwest,6.7,No
2018/02/20,13:00,0.337,0.209,0.344,0.325,0.306,0.172,0.102,west-northwest,4.5,No
2018/02/20,13:10,0.335,0.208,0.345,0.327,0.309,0.172,0.103,northwest,7.9,No
2018/02/20,13:20,0.337,0.209,0.346,0.325,0.307,0.172,0.102,northwest,8.6,No
2018/02/20,13:30,0.336,0.210,0.344,0.326,0.309,0.172,0.103,north-northwest,5.2,No
2018/02/20,13:40,0.337,0.208,0.346,0.324,0.309,0.172,0.103,north-northwest,7.0,No
2018/02/20,13:50,0.337,0.208,0.344,0.327,0.308,0.172,0.103,west-northwest,7.3,No
2018/02/20,14:00,0.337,0.210,0.344,0.325,0.308,0.172,0.102,northwest,9.5,No
2018/02/20,14:10,0.336,0.209,0.345,0.327,0.308,0.172,0.102,west-northwest,8.1,No
2018/02/20,14:20,0.338,0.210,0.344,0.324,0.309,0.172,0.102,northwest,7.6,No
2018/02/20,14:30,0.338,0.210,0.345,0.326,0.308,0.173,0.103,northwest,8.4,No
2018/02/20,14:40,0.338,0.210,0.345,0.327,0.309,0.171,0.102,northwest,8.1,No
2018/02/20,14:50,0.337,0.208,0.346,0.327,0.308,0.172,0.102,west-northwest,8.1,No
2018/02/20,15:00,0.337,0.209,0.345,0.328,0.307,0.172,0.103,west-northwest,8.1,No
2018/02/20,15:10,0.337,0.209,0.346,0.328,0.310,0.173,0.102,northwest,7.4,No
2018/02/20,15:20,0.337,0.209,0.346,0.328,0.309,0.172,0.102,northwest,6.5,No
2018/02/20,15:30,-,0.211,0.347,0.328,0.310,0.172,0.102,north-northwest,4.1,No
2018/02/20,15:40,-,0.211,0.348,0.329,0.309,0.173,0.103,west-northwest,2.9,No
2018/02/20,15:50,-,0.211,0.347,0.329,0.310,0.171,0.104,northwest,3.7,No
2018/02/20,16:00,-,0.210,0.347,0.328,0.308,0.173,0.103,northwest,5.3,No
2018/02/20,16:10,-,0.210,0.345,0.327,0.309,0.173,0.103,west-northwest,4.7,No
2018/02/20,16:20,-,0.209,0.346,0.327,0.311,0.172,0.103,west-northwest,2.5,No
2018/02/20,16:30,-,0.212,0.345,0.327,0.310,0.173,0.103,west-northwest,1.6,No
2018/02/20,16:40,-,0.210,0.346,0.326,0.308,0.174,0.103,west-northwest,2.8,No
2018/02/20,16:50,-,0.209,0.345,0.327,0.310,0.173,0.103,west,2.2,No
2018/02/20,17:00,-,0.211,0.346,0.327,0.309,0.173,0.104,west-northwest,2.1,No
2018/02/20,17:10,-,0.210,0.346,0.328,0.308,0.172,0.102,west-northwest,1.7,No
2018/02/20,17:20,-,0.211,0.345,0.326,0.308,0.173,0.103,northwest,0.9,No
2018/02/20,17:30,0.336,0.209,0.344,0.328,0.307,0.173,0.103,northwest,1.8,No
2018/02/20,17:40,0.336,0.211,0.345,0.328,0.309,0.174,0.103,northwest,2.0,No
2018/02/20,17:50,0.336,0.211,0.344,0.326,0.307,0.172,0.103,west-northwest,1.1,No
2018/02/20,18:00,0.338,0.210,0.343,0.328,0.309,0.172,0.103,-,CALM,No
2018/02/20,18:10,0.337,0.210,0.347,0.327,0.308,0.172,0.103,southwest,1.8,No
2018/02/20,18:20,0.336,0.210,0.345,0.328,0.308,0.172,0.103,southwest,3.4,No
2018/02/20,18:30,0.338,0.210,0.345,0.327,0.308,0.173,0.103,southeast,1.1,No
2018/02/20,18:40,0.338,0.210,0.345,0.326,0.308,0.172,0.103,south,1.3,No
2018/02/20,18:50,0.339,0.210,0.345,0.329,0.307,0.173,0.103,south-southwest,1.0,No
2018/02/20,19:00,0.337,0.209,0.345,0.328,0.307,0.172,0.102,southwest,2.1,No
2018/02/20,19:10,0.337,0.211,0.345,0.328,0.309,0.172,0.103,south-southwest,1.7,No
2018/02/20,19:20,0.338,0.210,0.344,0.326,0.308,0.173,0.103,south-southwest,2.8,No
2018/02/20,19:30,0.338,0.210,0.344,0.328,0.307,0.172,0.102,south-southwest,5.5,No
2018/02/20,19:40,0.337,0.209,0.346,0.327,0.306,0.172,0.103,south-southwest,4.6,No
2018/02/20,19:50,0.339,0.209,0.346,0.329,0.308,0.172,0.102,south,4.4,No
2018/02/20,20:00,0.339,0.210,0.344,0.326,0.308,0.173,0.103,south,3.9,No
2018/02/20,20:10,0.339,0.209,0.346,0.328,0.308,0.173,0.102,south-southwest,3.8,No
2018/02/20,20:20,0.338,0.209,0.345,0.328,0.306,0.173,0.103,south,3.5,No
2018/02/20,20:30,0.337,0.210,0.347,0.329,0.306,0.173,0.103,south-southwest,3.0,No
2018/02/20,20:40,0.339,0.210,0.345,0.326,0.307,0.172,0.102,south-southwest,3.3,No
2018/02/20,20:50,0.338,0.210,0.345,0.328,0.306,0.172,0.102,south-southwest,2.6,No
2018/02/20,21:00,0.337,0.209,0.345,0.327,0.307,0.173,0.103,south-southwest,3.5,No
2018/02/20,21:10,0.338,0.210,0.346,0.328,0.308,0.173,0.103,south-southwest,2.6,No
2018/02/20,21:20,0.336,0.210,0.344,0.327,0.307,0.172,0.103,south-southwest,3.7,No
2018/02/20,21:30,0.339,0.210,0.346,0.328,0.307,0.173,0.103,south-southwest,4.7,No
2018/02/20,21:40,0.340,0.209,0.346,0.327,0.306,0.173,0.103,south-southwest,5.0,No
2018/02/20,21:50,0.339,0.209,0.344,0.327,0.309,0.172,0.103,south-southwest,3.8,No
2018/02/20,22:00,0.338,0.211,0.346,0.327,0.307,0.173,0.103,southwest,4.5,No
2018/02/20,22:10,0.338,0.210,0.344,0.328,0.307,0.172,0.103,southwest,3.9,No
2018/02/20,22:20,0.338,0.211,0.345,0.328,0.308,0.172,0.103,west-southwest,3.8,No
2018/02/20,22:30,0.338,0.210,0.346,0.328,0.308,0.172,0.103,west,2.1,No
2018/02/20,22:40,0.338,0.210,0.345,0.328,0.308,0.173,0.103,north-northwest,2.0,No
2018/02/20,22:50,0.338,0.211,0.346,0.328,0.308,0.172,0.104,north-northeast,4.0,Yes
2018/02/20,23:00,0.339,0.211,0.346,0.328,0.308,0.173,0.103,north-northeast,5.0,Yes
2018/02/20,23:10,0.338,0.211,0.346,0.327,0.309,0.173,0.103,north,4.3,Yes
2018/02/20,23:20,0.338,0.210,0.345,0.328,0.308,0.173,0.103,north-northeast,2.9,No
2018/02/20,23:30,0.339,0.211,0.345,0.328,0.308,0.172,0.103,north,4.1,No
2018/02/20,23:40,0.337,0.210,0.346,0.327,0.308,0.173,0.103,north-northwest,4.9,No
2018/02/20,23:50,0.339,0.210,0.346,0.327,0.308,0.172,0.104,west-northwest,2.4,No
